Location: Unspecified
(0.0000°N, 0.0000°E)
Time: 04:06:42
(UTC+00:00)

Amsat-Oscar-6 - Pass Details

Date: 01 May 2019
Orbit: 1448 x 1455 km, 101.8° (Epoch: 22 May)

Event Time Altitude Azimuth Distance (km) Brightness Sun altitude
Rises 02:12:51 0° 38° (NE) 4,536 ? -53.3°
Reaches altitude 10° 02:16:04 10° 49° (NE) 3,561 ? -52.6°
Enters shadow 02:20:51 27° 81° (E) 2,493 ? -51.5°
